Regional Weather Roundup
Issued by NWS

Home | Current Version | Previous Version | Graphics & Text | Print | Product List | Glossary On
Versions: 1 2 3 4 5 6 7 8 9 10 11 12 13 14 15 16 17 18 19 20 21 22 23 24 25 26 27 28 29 30 31 32 33 34 35 36 37 38 39 40 41 42 43 44 45 46 47 48 49 50
000
ASUS43 KMPX 181810
RWRMN
WEATHER ROUNDUP FOR MINNESOTA
NATIONAL WEATHER SERVICE TWIN CITIES/CHANHASSEN MN
100 PM CDT FRI AUG 18 2017


NOTE: "FAIR" INDICATES FEW OR NO CLOUDS BELOW 12,000 FEET WITH NO
SIGNIFICANT WEATHER AND/OR OBSTRUCTIONS TO VISIBILITY. N/A MEANS
CURRENT SKY AND/OR WEATHER CONDITIONS ARE NOT AVAILABLE.

MNZ060>063-068>070-181900-
   Twin Cities Metro

CITY           SKY/WX    TMP DP  RH WIND       PRES   REMARKS
TWIN CITIES    RAIN      65  61  87 SW8       29.92R
6HR MIN TEMP:  62; 6HR MAX TEMP:  67; 6HR PCP:  0.05;

ST PAUL        LGT RAIN  66  64  93 W10       29.91S
CRYSTAL        LGT RAIN  66  61  84 SW7       29.90R
BLAINE         CLOUDY    70  64  83 SW8       29.90S
LAKEVILLE      LGT RAIN  63  63 100 W5        29.92F
EDEN PRAIRIE   LGT RAIN  66  64  93 VRB3      29.92R
6HR MIN TEMP:  60; 6HR MAX TEMP:  66; 6HR PCP:  0.07;

SOUTH ST PAUL  LGT RAIN  66  64  93 W9        29.91S
LAKE ELMO      FAIR      68  64  88 W9        29.91S
$$
MNZ001>005-007-008-013>017-022>024-027-028-181900-
   Northwest Minnesota

CITY           SKY/WX    TMP DP  RH WIND       PRES   REMARKS
BEMIDJI        MOSUNNY   76  56  49 N6        29.86F
HALLOCK        MOSUNNY   75  57  53 W8        29.84S
ROSEAU         MOSUNNY   79  55  44 NW5       29.83S
WARROAD        MOSUNNY   73  61  64 W9        29.83S
THIEF RVR FALL SUNNY     78  56  46 NW9       29.85F
CROOKSTON      MOSUNNY   79  55  44 N7        29.85S
FOSSTON        SUNNY     81  54  39 W3        29.86F
DETROIT LAKES  MOSUNNY   68  61  77 SW6       29.90F
MOORHEAD       PTSUNNY   73  61  64 S6        29.89F
PARK RAPIDS    PTSUNNY   79  61  53 W8        29.86F
MAHNOMEN       FAIR      74  62  65 SW5       29.87S
$$
MNZ006-009>011-018-025>026-181900-
   North Central Minnesota

CITY           SKY/WX    TMP DP  RH WIND       PRES   REMARKS
BAUDETTE       SUNNY     77  57  50 VRB3      29.81F
FLAG ISLAND    SUNNY     77  54  44 CALM      29.80F
INTL FALLS     SUNNY     76  58  53 NW6       29.82F
6HR MIN TEMP:  49; 6HR MAX TEMP:  77;

WASKISH        SUNNY     75  61  60 SW8       29.84S
BIG FORK       MOSUNNY   77  57  50 CALM      29.84F
LONGVILLE      PTSUNNY   75  64  69 SW5       29.87S
GRAND RAPIDS   PTSUNNY   74  60  61 W7        29.88S
CRANE LAKE     CLOUDY    72  63  73 CALM      29.85S
ORR            SUNNY     73  55  53 NW8       29.82F
COOK           CLOUDY    72  61  68 CALM      29.85S
WALKER         FAIR      75  59  56 NW6       29.86F
$$
MNZ012-019>021-037-181900-
   Northeast Minnesota

CITY           SKY/WX    TMP DP  RH WIND       PRES   REMARKS
DULUTH         CLOUDY    69  61  75 VRB5      29.86F
6HR MIN TEMP:  55; 6HR MAX TEMP:  69;

ELY            CLOUDY    66  57  72 SW3       29.85S
HIBBING        MOSUNNY   71  56  58 NW7       29.85F
EVELETH        CLOUDY    69  59  71 CALM      29.87S
DULUTH HARBOR  CLOUDY    72  63  73 CALM      29.85S
TWO HARBORS    CLOUDY    73  61  64 W5        29.83S
SILVER BAY     CLOUDY    70  57  64 CALM      29.82F
GRAND MARAIS     N/A     74  57  55 MISG      29.80R
G MARAIS ARPRT CLOUDY    63  52  67 W6        29.85R
$$
MNZ029>031-032-039>041-046>048-054>057-064-181900-
   West Central Minnesota

CITY           SKY/WX    TMP DP  RH WIND       PRES   REMARKS
FERGUS FALLS   CLOUDY    66  63  88 W7        29.91R
WHEATON        CLOUDY    68  59  73 N8        29.92S
MORRIS         CLOUDY    70  63  78 NW3       29.91F
ALEXANDRIA     CLOUDY    72  60  66 SW10      29.93S
ELBOW LAKE     CLOUDY    61  59  94 W5        29.92S
WADENA         TSTM      64  61  88 N5        29.89R
GLENWOOD       PTSUNNY   72  61  68 SW9       29.93R
APPLETON       CLOUDY    70  63  78 CALM      29.92R
BENSON         CLOUDY    72  59  64 SW3       29.93R
ORTONVILLE     CLOUDY    70  63  78 CALM      29.91F
MADISON        CLOUDY    75  64  69 E5        29.91R
WILLMAR        FAIR      68  63  83 SW5       29.93S
$$
MNZ033>034-036-042>043-049>051-058-059-181900-
   Central Minnesota

CITY           SKY/WX    TMP DP  RH WIND       PRES   REMARKS
ST CLOUD       CLOUDY    69  64  84 W7        29.90F
6HR MIN TEMP:  56; 6HR MAX TEMP:  69; 6HR PCP: TRACE;

SAUK CENTRE    FAIR      72  60  67 W12       29.91F
PAYNESVILLE    CLOUDY    69  63  81 W7        29.92F
AITKIN         CLOUDY    70  63  78 SW3       29.88R
PINE RIVER     PTSUNNY   72  57  60 SW3       29.90F
BRAINERD       CLOUDY    72  61  68 CALM      29.89S
STAPLES        MOSUNNY   73  57  56 SW3       29.88F
LONG PRAIRIE   FAIR      72  63  73 S8        29.91F
LITTLE FALLS   PTSUNNY   70  59  68 W7        29.90F
LITCHFIELD     MOSUNNY   72  64  78 SW5       29.93S
BUFFALO        DRIZZLE   67  62  83 SW3       29.93S
MAPLE LAKE     CLOUDY    68  64  85 W5        29.93S
HUTCHINSON     MOSUNNY   69  64  84 SW7       29.94S
$$
MNZ037-044-045-052-053-181900-
   East Central Minnesota

CITY           SKY/WX    TMP DP  RH WIND       PRES   REMARKS
PRINCETON      CLOUDY    72  63  73 SW5       29.91R
MORA           CLOUDY    66  61  82 NW5       29.90S
CAMBRIDGE      CLOUDY    73  61  64 SW5       29.90R
RUSH CITY      CLOUDY    67  62  83 CALM      29.89S
MOOSE LAKE     CLOUDY    68  61  77 CALM      29.86S
HINCKLEY       FAIR      68  63  83 CALM      29.88F
CLOQUET        CLOUDY    68  59  73 SW3       29.87S
MCGREGOR       CLOUDY    68  61  77 CALM      29.89S
$$
MNZ071>073-080-081-089-090-097-098-181900-
   Southwest Minnesota

CITY           SKY/WX    TMP DP  RH WIND       PRES   REMARKS
MONTEVIDEO     CLOUDY    72  68  88 CALM      29.92R
GRANITE FALLS  CLOUDY    75  65  70 SE7       29.91F
CANBY          MOSUNNY   78  60  52 CALM      29.91S
MARSHALL       SUNNY     77  58  51 S8        29.90F
REDWOOD FALLS  CLOUDY    70  63  78 S6        29.92F
OLIVIA         CLOUDY    64  61  88 S6        29.91F
PIPESTONE      SUNNY     75  61  60 SW8       29.93F
WINDOM         SUNNY     73  61  64 CALM      29.94S
WORTHINGTON    SUNNY     74  60  61 CALM      29.94F
JACKSON        SUNNY     70  59  68 CALM      29.95S
TRACY          MOSUNNY   75  64  69 CALM      29.92F
SLAYTON        MOSUNNY   73  58  59 S7        29.94F HAZE
$$
MNZ065>067-074>077-082>085-091>093-181900-
   South Central Minnesota

CITY           SKY/WX    TMP DP  RH WIND       PRES   REMARKS
MANKATO        LGT RAIN  66  61  84 S7        29.94F
NEW ULM        CLOUDY    70  57  64 S3        29.93F
ST JAMES       SUNNY     72  61  68 CALM      29.94F
FAIRMONT       MOSUNNY   71  61  70 VRB3      29.95S
GLENCOE        CLOUDY    69  64  84 SW8       29.94R
FARIBAULT      LGT RAIN  64  63  94 SW3       29.94S
OWATONNA       LGT RAIN  64  61  88 W7        29.94S
WASECA         RAIN      63  61  94 W3        29.96S
ALBERT LEA     CLOUDY    66  64  94 NW5       29.95S
$$
MNZ078>079-086>088-094>096-181900-
   Southeast Minnesota

CITY           SKY/WX    TMP DP  RH WIND       PRES   REMARKS
ROCHESTER      CLOUDY    64  62  93 W9        29.94R
6HR MIN TEMP:  56; 6HR MAX TEMP:  67; 6HR PCP: TRACE;

RED WING       CLOUDY    68  63  83 W9        29.90S
STANTON        LGT RAIN  66  62  86 W6        29.92R
DODGE CENTER   CLOUDY    63  61  94 NW8       29.93S
WINONA         CLOUDY    70  61  73 N3        29.89F
AUSTIN         DRIZZLE   64  61  88 W3        29.94S
PRESTON        CLOUDY    65  60  81 W7        29.94R
$$
ABBREVIATIONS USED IN REMARKS
   TC - TEMPERATURES IN CELSIUS
  WCI - WIND CHILL INDEX
   HX - HEAT INDEX
  VSB - VISIBILITY
$$




USA.gov is the U.S. government's official web portal to all federal, state and local government web resources and services.